Hourly Data Report for August 28, 2021

DRYDEN REGIONAL
ONTARIO
Current Station Operator: NAVCAN

49°49'39.000" N
92°44'39.000" W
412.70 m
6032125
71527
YHD

Download Data

Hourly Data (August 2021)
Hourly Data Report for August 28, 2021
TIME
LST
Temp Definition
°C
Dew Point Definition
°C
Rel Hum Definition
%
Precip. Amount Definition
mm

Wind Dir Definition
10's deg

Wind Spd Definition
km/h
Visibility Definition
km
Stn Press Definition
kPa
Hmdx Definition


Wind Chill Definition


Weather Definition


00:00 13.4 12.8 96 0.0 13 15 16.1 96.61     LegendNANA
01:00 13.6 13.1 97 0.0 14 17 16.1 96.53     LegendNANA
02:00 14.2 13.6 96 0.0 16 11 16.1 96.57     LegendNANA
03:00 14.5 14.0 97 0.2 16 13 16.1 96.54     LegendNANA
04:00 14.8 14.3 97 0.0 18 11 16.1 96.55     LegendNANA
05:00 15.0 14.7 98 0.0 17 13 16.1 96.53     LegendNANA
06:00 15.3 15.0 98 0.0 18 13 4.8 96.53     Fog
07:00 15.8 15.7 99 0.0 17 5 2.0 96.53     Fog
08:00 16.1 15.8 98 0.0 18 9 3.2 96.50     Fog
09:00 16.5 16.2 98 0.0 19 5 4.0 96.53     Fog
10:00 16.8 16.3 97 0.0 19 8 6.4 96.54     Fog
11:00 17.4 16.7 96 0.0 19 8 12.9 96.58     LegendNANA
12:00 17.9 16.5 91 0.0 15 11 16.1 96.50     LegendNANA
13:00 18.1 16.8 92 0.0 15 26 16.1 96.46     LegendNANA
14:00 18.3 17.2 93 0.0 23 8 16.1 96.45     Rain
15:00 18.6 17.6 94 0.0   0 16.1 96.42     LegendNANA
16:00 19.4 17.6 89 0.0 6 5 16.1 96.39     LegendNANA
17:00 19.8 17.4 86 0.0   0 16.1 96.39     LegendNANA
18:00 19.7 17.5 87 0.0 9 4 16.1 96.41     LegendNANA
19:00 18.8 17.5 92 0.0 7 4 16.1 96.39     LegendNANA
20:00 18.3 17.5 95 0.0 6 4 16.1 96.37     LegendNANA
21:00 17.4 17.1 98 0.0 8 5 4.8 96.30     Fog
22:00 17.1 16.9 99 0.0 6 5 1.2 96.27     Fog
23:00 16.9 16.7 99 0.0 10 8 4.8 96.24     Fog

Notes on Data Quality.

Legend

  • E = Estimated
  • M = Missing
  • NA = Not Available*
  • [empty] = Indicates an unobserved value
Date modified: